Location: Baggett Branch
(32.6074°N, 97.0167°W)
Time: 11:23:21
(UTC+00:00)

CORIOLIS - Pass Details

Date: 10 February 2026
Orbit: 815 x 836 km, 98.7° (Epoch: 8 March)

Event Time Altitude Azimuth Distance (km) Brightness Sun altitude
Rises 12:32:58 0° 15° (NNE) 3,369 7.4 -9.5°
Reaches altitude 10° 12:35:20 10° 17° (NNE) 2,429 6.7 -9.1°
Maximum altitude 12:40:43 75° 103° (ESE) 853 4.4 -7.9°
Drops below altitude 10° 12:46:02 10° 188° (S) 2,402 6.6 -6.8°
Sets 12:48:21 0° 190° (S) 3,329 7.3 -6.4°
